Meath Environmental Platform

Observations for Trim Market St

Time AQI Temp °C Hum % Pres Pa CO μg/m³ H₂S μg/m³ NO μg/m³ NO₂ μg/m³ O₃ μg/m³ SO₂ μg/m³ PM1 μg/m³ PM2.5 μg/m³ PM10 μg/m³
Friday 10 July 2026
16:11 1 40.8 28 67,128 0 0 0 0 7.75 7.26 1.43 5.6 6.16
16:09 1 40.9 27 67,118 0 0 0 3.87 15.96 6.34 2.14 5.62 6.19
16:08 1 41 27 67,130 0 0 0 2.23 22.5 6.88 2.85 6.16 6.78
16:07 1 41 27 67,147 0 0 0 1.43 22.6 7.01 1.43 3.98 4.38
16:03 1 41.2 27 67,133 0 2.79 0 5.87 25.12 6.29 2.14 5.07 5.58
16:02 1 41.2 27 67,143 0 0 0 5.39 18.41 5.96 2.85 6.17 6.79
16:01 1 41.2 27 67,157 0 0 0 7.8 18.87 5.47 2.14 5.08 5.76
15:56 1 41.2 27 67,165 0 0 0 5.11 21.41 6.34 2.85 5.63 6.2
15:53 1 41.2 27 67,126 0 0 0 0.41 25.85 7.11 1.43 4.54 4.99
15:44 1 41.1 27 67,141 0 0 0 0 28.87 7.03 1.43 4 4.4
15:42 1 41.1 27 67,143 0 0 0 0 29.93 8.01 2.14 5.09 5.59
15:40 1 41 27 67,120 0 0 0 5.44 16.96 5.87 2.14 5.62 6.19
15:38 1 41 27 67,096 0 0 0 0.14 21.99 7.04 2.85 6.72 7.39
15:37 1 40.9 27 67,094 0 1.91 0 14.87 17.36 4.29 1.43 5.08 5.58
15:36 1 40.9 27 67,092 0 4.49 0 0 18.56 7.1 2.14 5.07 5.57
15:34 1 40.8 27 67,098 0 6.38 0 8.59 30.87 5.94 1.43 5.08 5.58
15:33 1 40.8 27 67,076 0 0 0 0 37.18 7.23 2.14 5.08 5.58
15:30 1 40.8 27 67,072 0 8.18 0 5.4 30.86 6.47 1.43 4.53 4.88
15:29 1 40.9 27 67,070 0 6.15 0 3.29 32.96 7 1.43 5.09 5.59
15:28 1 40.9 27 67,070 0 5.74 0 5.41 32.22 6.07 2.14 5.64 6.21